Location: Buchberg
(46.9333°N, 15.8500°E)
Time: 04:38:05
(UTC+00:00)

NPP - Pass Details

Date: 14 July 2020
Orbit: 826 x 828 km, 98.7° (Epoch: 11 August)

Event Time Altitude Azimuth Distance (km) Brightness Sun altitude
Rises 01:17:35 0° 10° (N) 3,378 8.2 -15.0°
Reaches altitude 10° 01:19:58 10° 7° (N) 2,440 7.1 -14.8°
Maximum altitude 01:25:14 56° 290° (WNW) 976 3.9 -14.3°
Enters shadow 01:28:50 20° 219° (SW) 1,811 4.8 -13.9°
